Location: Zagreb
(45.8000°N, 16.0000°E)
Time: 00:30:47
(UTC+02:00)

Vanguard 2 Rocket - All Passes

Search period start: 12 August 2020 00:00
Search period end: 22 August 2020 00:00
Orbit: 556 x 3324 km, 32.9° (Epoch: 11 August)

Date Brightness Start Highest point End Pass type
(mag) Time Alt. Az. Time Alt. Az. Time Alt. Az.
12 Aug - 00:16:01 10° WSW 00:25:35 23° SSW 00:38:04 10° SSE visible
12 Aug - 16:43:34 10° SSE 16:45:21 11° SE 16:47:21 10° SE daylight
12 Aug - 18:51:21 10° SW 18:57:02 32° SSE 19:06:04 10° ESE daylight
12 Aug - 21:02:35 10° WSW 21:10:22 38° S 21:23:04 10° SE visible
12 Aug - 23:15:46 10° WSW 23:24:55 27° SSW 23:37:53 10° SSE visible
13 Aug - 01:36:56 10° SW 01:39:50 11° SW 01:42:54 10° SSW visible
13 Aug - 17:53:14 10° SSW 17:57:47 24° SSE 18:04:23 10° ESE daylight
13 Aug - 20:03:47 10° WSW 20:10:26 36° S 20:21:21 10° ESE daylight
13 Aug - 22:16:07 10° WSW 22:24:27 30° SSW 22:37:02 10° SE visible
14 Aug - 00:32:26 10° WSW 00:39:13 15° SSW 00:47:22 10° S visible
14 Aug - 16:55:39 10° S 16:58:47 16° SSE 17:02:42 10° ESE daylight
14 Aug - 19:05:13 10° SW 19:10:49 32° S 19:19:43 10° ESE daylight
14 Aug - 21:16:53 10° WSW 21:24:15 32° S 21:35:49 10° SE visible
14 Aug - 23:31:12 10° WSW 23:38:42 19° SSW 23:48:32 10° S visible
15 Aug - 18:06:52 10° SW 18:11:29 26° SSE 18:18:18 10° ESE daylight
15 Aug - 20:17:58 10° WSW 20:24:20 32° S 20:34:27 10° SE visible
15 Aug - 22:31:02 10° WSW 22:38:20 22° SSW 22:48:34 10° SSE visible
16 Aug - 17:08:50 10° SSW 17:12:23 19° SSE 17:17:05 10° ESE daylight
16 Aug - 19:19:16 10° WSW 19:24:41 30° S 19:33:08 10° ESE daylight
16 Aug - 21:31:31 10° WSW 21:38:11 25° SSW 21:48:00 10° SSE visible
16 Aug - 23:49:06 10° SW 23:52:32 11° SSW 23:56:21 10° SSW visible
17 Aug - 16:11:29 10° S 16:13:26 12° SSE 16:15:39 10° SE daylight
17 Aug - 18:20:46 10° SW 18:25:19 27° S 18:32:00 10° ESE daylight
17 Aug - 20:32:24 10° WSW 20:38:17 26° S 20:47:09 10° SE visible
17 Aug - 22:47:05 10° SW 22:52:14 15° SSW 22:58:38 10° S visible
18 Aug - 17:22:29 10° SW 17:26:08 21° SSE 17:31:05 10° ESE daylight
18 Aug - 19:33:33 10° WSW 19:38:38 26° S 19:46:14 10° SE daylight
18 Aug - 21:46:49 10° WSW 21:52:09 17° SSW 21:59:13 10° SSE visible
19 Aug - 16:24:27 10° SSW 16:27:07 16° SSE 16:30:18 10° SE daylight
19 Aug - 18:34:54 10° SW 18:39:13 24° S 18:45:25 10° SE daylight
19 Aug - 20:47:17 10° WSW 20:52:16 19° SSW 20:59:09 10° SSE visible
20 Aug - 15:27:28 10° SSE 15:28:09 10° SSE 15:28:51 10° SSE daylight
20 Aug - 17:36:24 10° SW 17:39:59 21° S 17:44:49 10° SE daylight
20 Aug - 19:48:10 10° SW 19:52:37 20° S 19:58:49 10° SSE daylight
21 Aug - 16:38:02 10° SSW 16:40:55 17° S 16:44:24 10° SE daylight
21 Aug - 18:49:18 10° SW 18:53:11 20° S 18:58:27 10° SE daylight
21 Aug - 21:03:32 10° SW 21:06:18 12° SSW 21:09:30 10° S visible
